Aérodrome :
LOGIN :

S'inscrire | Disclaimer

   EN    FR    IT 

 










Légende :    VFR   VFR Marginal   IFR   IFR Intensif   IFR Très Intensif
Visi : 
Plafond : 
>= 8 km
>= 3000ft
5 à 8 km
1000 à 3000 ft
1500m à 5 km
500 à 1000 ft
800 à 1500m
200 à 500 ft
< 800m
< 200 ft
Symboles :   Orages  Brouillard  Fortes neiges  Fortes précipitations  Vent > 20 kt
SIGMETs :   Divers  Orages  Givrage  Turbulence  Onde Orograph.  Cendres Volcan.







- Altitude de l'aérodrome : 392 ft
- Code IATA : CDG
- Voir les cartes d'approche


LFPG - Paris-Aeroport Charles De Gaulle

DERNIER METAR :
  • 171300Z 19013KT CAVOK 16/M02 Q1020 NOSIG

METARs EXPIRÉS :
  • 171230Z 20011KT 160V240 CAVOK 15/M02 Q1020 NOSIG
  • 171200Z 20012KT 170V300 CAVOK 14/M03 Q1020 NOSIG
  • 171130Z 20013KT CAVOK 14/M03 Q1020 NOSIG
  • 171100Z 20014KT CAVOK 13/M03 Q1021 NOSIG
  • 171030Z 18009KT 150V210 CAVOK 12/M02 Q1021 NOSIG

TAF TAF LFPG
Valide du 17 à 12h jusqu'au 18 à 18h UTC


171100Z 1712/1818 19010KT CAVOK TX16/1714Z TN03/1806Z
BECMG 1718/1720 16005KT
PROB30
TEMPO 1803/1806 4000 BR
BECMG 1810/1812 20010KT
ATIS : +33 1 48 62 10 92
Pas de NOTAMs connus pour ce terrain.



MET'MAP, la Météo Aéronautique d'un coup d'oeil ! - Copyright ORBIFLY Décembre 2007 - Disclaimer

ORBIFLY MET'MAP TEAM :

Programmation & Développement : Alexandra Zaïnal
Conception & Développement : Baudouin d'Aumeries
Co-Programmation & Développement : Marc-Olivier Méhu
Soutien technique & logistique : Manuel Goepfert

Contact : metmap@orbifly.com




SOURCES & CREDITS :

   NOAA